Wind_Speed
30 31 31 32 33 34 35 36 36 36 37 39 40 41 42 44 45 45 46 47 48 49 50 50 49 48 48 47 46 45 44 43 42 42 42 42 42 42 41 41 40 40 40
29 30 30 32 33 33 34 35 36 36 36 38 40 41 42 43 44 44 45 46 47 49 51 51 50 49 49 48 48 47 47 45 44 44 44 44 44 43 42 42 42 42 41
28 28 29 30 31 32 33 33 34 35 36 37 38 40 41 41 42 44 44 44 45 47 49 51 51 50 50 51 50 50 50 49 47 46 46 47 46 45 45 44 43 43 43
27 27 28 29 30 30 31 32 33 34 34 34 35 37 39 41 42 42 43 44 45 46 47 49 50 51 50 50 51 50 51 51 49 49 48 48 47 47 45 45 44 43 43
27 27 27 28 29 28 29 30 31 31 31 33 33 34 36 38 40 41 43 44 45 46 47 49 49 50 51 50 51 50 51 51 51 50 49 49 49 48 48 46 45 45 45
26 26 26 27 27 27 28 28 29 29 30 31 32 32 33 35 37 39 40 41 41 42 44 47 48 49 50 51 51 50 50 50 50 50 49 49 49 48 48 47 46 47 46
25 25 25 25 26 26 26 26 27 27 28 28 29 30 31 32 34 36 38 39 39 39 41 43 45 47 47 49 49 48 48 49 49 49 50 50 50 49 49 49 49 49 48
24 26 26 25 25 25 25 26 26 26 26 27 28 28 29 30 32 33 35 36 36 37 39 42 44 45 47 48 47 47 47 47 47 48 49 49 49 49 50 51 50 50 49
23 25 25 25 25 25 25 26 26 26 25 26 27 27 28 27 28 30 31 33 36 37 38 39 40 41 44 45 45 43 43 43 45 47 48 49 49 50 50 50 50 51 50
22 23 24 25 25 25 25 25 25 25 25 26 27 26 25 25 26 28 30 31 33 35 37 38 39 40 40 40 40 41 40 41 42 44 46 48 49 49 50 49 49 51 51
21 22 23 24 25 25 25 24 24 25 24 24 24 24 24 25 25 25 27 27 29 31 33 35 37 37 37 38 39 40 40 39 40 41 43 46 47 49 49 49 49 50 50
20 21 23 23 23 23 24 25 25 25 25 24 24 23 24 25 24 25 26 27 28 28 30 31 33 34 35 37 38 39 39 39 40 40 42 44 46 48 49 48 48 49 50
22 23 23 23 24 24 24 25 25 25 24 23 23 23 23 24 24 25 25 26 26 27 28 29 31 33 34 36 37 39 39 40 41 42 42 43 44 45 47 47 48 49 50
22 23 23 23 24 24 24 24 23 23 24 24 24 23 23 24 24 24 24 24 24 24 24 26 28 30 32 34 36 38 39 40 41 42 42 43 44 45 45 47 48 49 50
22 22 23 24 24 24 23 23 23 23 23 23 22 22 22 23 23 23 24 23 23 24 24 25 27 29 30 32 33 35 36 38 39 40 41 43 44 43 44 45 46 48 50
23 23 23 23 23 22 22 21 22 22 22 22 22 22 23 23 23 23 23 24 24 24 25 26 27 28 29 30 32 34 35 36 37 38 40 41 43 43 44 44 46 47 48
23 22 21 21 21 21 20 20 20 21 22 23 23 23 23 23 23 22 23 23 24 25 26 26 27 29 31 32 33 34 34 35 37 38 39 41 42 43 44 45 47 48 49
22 21 21 22 21 21 21 21 21 21 22 22 22 22 22 22 22 23 24 24 24 25 26 27 29 30 31 32 33 34 35 36 37 38 39 41 42 43 44 45 46 47 48
23 23 22 22 22 22 22 22 22 22 22 22 23 23 22 22 23 23 23 24 25 26 27 28 29 30 31 32 32 34 35 36 37 37 38 39 40 41 43 45 46 47 48
24 24 24 24 24 24 24 24 24 23 23 23 24 24 24 25 24 25 25 26 27 28 28 29 30 30 31 32 33 34 35 35 36 37 37 38 39 40 42 43 45 45 46
25 25 25 25 25 25 25 25 24 24 24 25 25 25 25 26 26 26 27 27 28 29 30 30 30 30 31 32 33 34 35 35 36 36 37 38 39 40 41 42 43 44 45
26 26 25 25 25 25 25 25 25 26 25 26 27 27 28 28 29 29 29 29 29 29 30 30 30 30 30 30 31 32 33 34 34 35 36 37 39 40 40 41 42 42 43
27 27 26 26 26 26 26 26 27 27 27 27 28 29 29 29 29 30 30 30 29 29 29 29 29 29 29 30 31 31 32 34 35 36 37 38 39 40 40 40 41 42 43
28 28 28 27 27 28 28 28 29 29 29 30 30 29 29 29 29 29 29 29 28 28 28 28 29 30 30 31 32 32 33 34 35 36 37 37 38 39 40 40 41 42 43
29 29 29 29 29 29 29 30 30 31 31 30 30 29 29 29 29 29 28 28 28 29 29 29 30 31 32 32 33 34 35 35 36 36 37 38 39 40 40 41 41 43 44
30 30 30 30 31 31 31 31 31 31 30 29 29 29 29 29 29 29 28 28 29 30 31 31 32 32 32 33 34 35 36 36 36 37 37 38 39 41 41 42 43 44 45
Wind_Direction
263 264 265 266 267 267 267 267 267 266 264 262 261 260 258 257 256 254 253 252 251 249 247 247 248 247 248 250 251 252 254 254 254 255 255 256 258 259 260 261 262 263 264
263 266 267 268 268 268 269 268 268 267 267 266 264 262 259 257 254 253 253 252 252 249 247 245 246 246 247 248 249 251 253 254 254 256 257 257 258 259 260 261 261 262 263
264 266 269 271 271 271 270 270 270 269 269 268 266 263 259 257 255 254 254 254 253 251 249 247 245 245 246 247 248 250 252 252 254 257 258 259 258 259 260 261 262 262 262
266 269 271 273 273 273 272 272 272 273 272 270 268 265 262 258 256 255 254 254 254 252 250 247 246 246 246 247 247 249 252 252 253 255 257 258 259 258 258 259 260 260 261
268 271 274 275 275 276 276 275 274 275 274 272 269 267 264 261 258 256 254 255 254 253 251 249 248 247 247 248 249 250 253 254 254 255 256 258 258 258 259 257 258 260 261
271 273 276 277 276 277 278 278 276 276 276 274 272 269 265 262 259 257 256 256 255 254 252 250 248 247 247 248 249 251 253 254 255 255 256 256 257 258 259 258 259 260 260
272 274 278 278 278 279 280 279 278 278 279 276 273 272 269 265 261 260 258 255 254 254 252 250 248 247 248 249 250 250 251 253 255 256 256 255 256 257 259 260 260 260 260
276 278 280 280 280 281 281 281 281 281 280 277 275 273 272 269 264 261 259 258 256 255 253 251 249 250 250 250 250 250 251 253 254 254 254 254 255 257 258 260 261 260 259
280 280 281 282 282 283 282 282 282 282 282 280 278 279 274 269 266 264 263 259 255 253 253 252 251 252 251 250 250 251 253 255 255 254 254 254 255 256 258 260 262 261 260
283 284 283 283 284 285 285 284 284 283 283 283 280 278 276 273 271 269 267 264 258 253 253 252 252 252 250 249 249 251 253 256 256 256 256 255 255 257 258 261 262 263 263
285 285 285 286 287 287 289 290 289 287 287 286 283 280 279 278 276 272 270 268 264 260 257 254 253 251 251 250 252 252 253 256 258 259 259 258 257 258 258 261 262 263 263
288 287 287 287 287 288 289 291 291 290 288 287 285 284 281 281 278 277 274 271 269 267 264 258 254 253 253 253 253 253 255 257 259 261 261 261 260 259 260 262 263 263 264
287 287 287 288 288 289 289 290 290 289 288 287 287 288 285 282 281 280 276 273 270 267 264 260 256 254 254 254 255 257 257 259 260 262 263 263 263 263 263 264 265 266 266
289 288 289 291 291 291 291 290 289 290 290 289 288 289 288 284 283 281 278 273 270 268 266 263 261 258 259 259 259 259 258 259 260 262 264 264 264 265 266 267 267 267 268
291 291 291 292 292 291 290 289 289 290 291 291 291 292 291 288 285 281 277 274 272 270 270 270 266 265 263 262 263 262 262 263 263 264 264 264 265 266 268 268 269 270 270
289 291 291 291 293 293 292 290 289 288 290 292 291 292 291 288 287 283 277 274 273 273 273 273 271 269 266 265 266 266 266 266 266 266 266 266 266 267 269 270 271 272 272
287 288 290 291 294 295 296 294 292 290 291 292 293 291 289 286 285 283 278 277 276 277 276 273 272 271 271 269 269 269 268 269 269 268 269 269 269 270 270 270 272 273 273
284 286 289 292 294 296 297 298 296 293 292 292 292 293 292 289 286 285 282 277 277 277 278 276 275 274 274 273 272 271 270 271 272 272 271 271 271 272 271 272 273 274 275
285 287 289 290 291 293 294 296 296 295 294 294 294 293 292 292 290 289 286 280 278 279 279 278 279 277 275 273 274 274 274 274 274 274 274 274 274 274 273 274 275 276 276
287 286 287 288 289 290 291 292 293 294 294 295 294 292 291 290 289 289 286 283 281 281 281 281 282 279 276 275 275 276 276 275 275 275 275 275 276 276 277 278 278 277 277
287 284 284 285 287 288 289 290 292 292 294 295 296 293 292 291 290 288 287 286 285 284 284 284 283 281 279 278 278 279 278 277 277 278 278 278 278 278 279 279 279 279 279
287 284 283 284 285 287 288 290 292 292 293 294 295 295 293 291 291 289 288 287 287 287 286 285 283 282 281 281 281 281 280 279 280 280 281 281 281 281 281 281 281 280 280
286 284 283 282 283 284 286 288 290 291 292 293 294 295 294 293 292 290 290 289 288 288 288 286 284 282 282 281 282 283 283 283 282 282 282 283 283 283 283 283 283 282 282
285 284 282 281 281 283 285 287 289 290 291 292 293 294 293 293 293 293 292 291 290 290 289 288 287 284 283 283 283 284 285 286 285 284 284 285 285 285 285 285 285 284 283
284 283 282 281 281 283 286 287 288 289 291 292 292 292 293 293 293 293 291 291 290 291 291 291 291 289 286 284 284 285 286 287 287 287 286 286 286 285 284 284 286 286 286
285 284 283 282 282 284 286 287 289 290 290 290 290 290 291 291 292 291 291 291 291 292 292 292 292 291 290 287 286 286 287 288 288 288 288 289 288 287 285 286 287 287 287
Height
5716 5716 5716 5716 5716 5716 5715 5715 5715 5715 5714 5714 5715 5716 5718 5719 5721 5723 5726 5729 5732 5735 5739 5744 5749 5752 5756 5760 5763 5766 5769 5771 5773 5776 5778 5781 5783 5785 5787 5788 5790 5792 5793
5710 5710 5709 5709 5709 5708 5708 5708 5707 5707 5706 5706 5706 5707 5708 5709 5711 5713 5715 5718 5721 5724 5728 5733 5738 5742 5745 5749 5752 5755 5758 5761 5763 5766 5768 5770 5773 5775 5777 5779 5781 5782 5784
5704 5704 5703 5703 5702 5701 5701 5700 5699 5699 5698 5697 5697 5697 5698 5699 5701 5703 5705 5708 5710 5714 5717 5722 5726 5730 5734 5738 5741 5745 5748 5751 5753 5755 5757 5759 5762 5765 5767 5769 5770 5772 5774
5698 5698 5698 5697 5695 5694 5693 5692 5692 5691 5690 5689 5689 5689 5689 5691 5692 5693 5695 5697 5700 5703 5706 5710 5714 5718 5722 5726 5730 5733 5736 5739 5741 5743 5746 5748 5750 5753 5756 5758 5760 5761 5763
5693 5693 5692 5690 5689 5688 5686 5685 5684 5683 5682 5681 5680 5680 5681 5681 5682 5684 5686 5687 5689 5692 5695 5699 5703 5706 5711 5715 5718 5721 5724 5726 5729 5732 5734 5736 5738 5740 5743 5747 5749 5751 5753
5688 5687 5686 5685 5683 5682 5680 5679 5678 5676 5675 5674 5673 5672 5672 5672 5673 5674 5675 5677 5678 5680 5683 5687 5691 5694 5699 5703 5706 5709 5711 5714 5717 5720 5722 5724 5726 5729 5731 5734 5737 5739 5741
5682 5681 5680 5679 5678 5676 5674 5673 5671 5670 5668 5667 5666 5665 5664 5664 5664 5664 5665 5667 5669 5671 5673 5676 5679 5683 5687 5691 5694 5697 5699 5702 5705 5708 5710 5712 5714 5716 5719 5721 5724 5726 5729
5677 5676 5675 5673 5672 5670 5669 5667 5665 5664 5662 5661 5659 5658 5657 5655 5655 5655 5656 5657 5659 5661 5663 5666 5669 5672 5676 5679 5682 5685 5688 5690 5693 5695 5697 5700 5702 5704 5707 5709 5711 5713 5716
5672 5670 5669 5667 5666 5664 5663 5661 5660 5658 5656 5654 5653 5651 5649 5648 5647 5647 5647 5648 5650 5651 5653 5655 5658 5661 5664 5667 5670 5673 5676 5678 5681 5683 5685 5688 5690 5692 5695 5696 5698 5700 5703
5666 5664 5663 5662 5660 5659 5657 5655 5653 5652 5650 5648 5646 5645 5644 5642 5641 5640 5640 5639 5640 5641 5643 5645 5648 5650 5653 5656 5659 5662 5665 5667 5670 5672 5674 5676 5678 5680 5682 5684 5685 5687 5689
5661 5659 5658 5656 5655 5653 5651 5649 5647 5646 5644 5642 5641 5639 5638 5637 5635 5634 5633 5632 5632 5632 5634 5636 5638 5641 5643 5646 5649 5652 5655 5657 5660 5661 5663 5665 5666 5667 5669 5671 5672 5674 5675
5656 5654 5652 5651 5649 5647 5645 5643 5641 5640 5638 5636 5635 5633 5631 5630 5629 5628 5627 5626 5625 5625 5626 5627 5629 5631 5634 5637 5639 5642 5644 5647 5649 5650 5652 5654 5655 5656 5657 5658 5659 5661 5662
5651 5649 5647 5646 5644 5642 5640 5637 5635 5634 5632 5630 5628 5627 5625 5624 5622 5621 5620 5619 5619 5618 5619 5620 5621 5623 5625 5627 5630 5631 5633 5635 5638 5639 5641 5642 5643 5644 5645 5646 5647 5647 5648
5645 5643 5641 5640 5638 5636 5634 5632 5630 5628 5626 5624 5622 5620 5618 5617 5616 5615 5614 5613 5613 5613 5613 5613 5614 5615 5617 5618 5619 5621 5623 5625 5626 5628 5629 5630 5631 5632 5633 5633 5634 5634 5635
5639 5637 5636 5634 5632 5630 5628 5626 5624 5622 5620 5617 5616 5614 5612 5610 5609 5608 5607 5606 5606 5606 5606 5606 5607 5607 5608 5609 5610 5611 5612 5614 5615 5616 5617 5618 5619 5620 5620 5620 5621 5621 5621
5633 5631 5629 5627 5625 5623 5621 5619 5617 5615 5614 5612 5609 5607 5606 5604 5602 5601 5600 5600 5599 5599 5599 5599 5599 5600 5600 5600 5601 5601 5602 5603 5604 5605 5605 5606 5606 5607 5607 5607 5607 5607 5607
5627 5625 5623 5621 5619 5618 5615 5613 5611 5609 5607 5606 5604 5601 5600 5598 5596 5595 5594 5593 5593 5592 5592 5592 5592 5592 5592 5591 5592 5592 5592 5592 5593 5593 5593 5593 5593 5593 5593 5594 5593 5593 5592
5621 5619 5618 5616 5614 5612 5610 5608 5606 5603 5601 5599 5597 5595 5593 5591 5590 5588 5587 5586 5586 5585 5585 5584 5584 5583 5582 5581 5581 5581 5581 5581 5581 5581 5581 5580 5580 5580 5580 5580 5580 5579 5578
5614 5613 5611 5609 5608 5606 5604 5602 5600 5597 5595 5593 5591 5589 5587 5585 5583 5582 5580 5579 5578 5577 5576 5575 5574 5573 5572 5571 5570 5570 5570 5569 5569 5569 5568 5568 5567 5567 5567 5566 5565 5565 5563
5607 5606 5604 5603 5601 5599 5597 5595 5593 5591 5589 5587 5584 5582 5580 5578 5576 5575 5573 5572 5570 5569 5567 5566 5564 5563 5562 5561 5560 5559 5559 5558 5558 5557 5556 5555 5555 5554 5552 5551 5550 5550 5549
5601 5599 5597 5596 5594 5592 5590 5588 5586 5584 5582 5579 5577 5575 5572 5570 5569 5567 5565 5563 5561 5559 5558 5556 5554 5553 5551 5550 5549 5548 5547 5547 5546 5545 5544 5543 5542 5541 5539 5537 5536 5535 5534
5594 5592 5590 5588 5586 5584 5583 5581 5579 5576 5574 5572 5569 5567 5564 5562 5560 5558 5556 5554 5552 5550 5548 5546 5545 5543 5542 5541 5539 5538 5537 5536 5535 5534 5533 5532 5530 5528 5526 5524 5522 5521 5520
5586 5584 5582 5581 5579 5577 5575 5573 5571 5568 5566 5563 5560 5558 5555 5553 5550 5548 5546 5545 5543 5541 5539 5537 5536 5534 5533 5531 5530 5528 5527 5525 5524 5523 5521 5519 5518 5516 5514 5512 5510 5508 5507
5578 5576 5574 5572 5571 5569 5566 5564 5562 5559 5557 5554 5551 5549 5546 5544 5541 5539 5537 5535 5534 5532 5530 5529 5527 5526 5524 5522 5521 5519 5517 5515 5513 5511 5510 5508 5505 5504 5502 5500 5497 5495 5493
5569 5567 5565 5564 5562 5560 5558 5555 5553 5550 5547 5544 5542 5539 5537 5535 5533 5531 5529 5527 5526 5524 5522 5520 5518 5516 5515 5513 5511 5509 5507 5505 5503 5501 5498 5496 5494 5491 5489 5487 5484 5482 5479
5560 5558 5556 5555 5553 5551 5548 5546 5543 5540 5537 5535 5533 5531 5529 5527 5525 5523 5521 5519 5518 5516 5514 5512 5510 5507 5505 5503 5501 5499 5497 5494 5492 5489 5487 5484 5482 5479 5476 5474 5471 5468 5465